[[{"header":{"parameterUnit":"m.s-1","parameterCategory":1,"la1":30.2992,"la2":30.254,"lo1":-89.0895,"lo2":-89.0443,"dy":0.0025,"dx":0.0025,"nx":19,"ny":19,"refTime":"2026-03-21T03:00:00:Z","depth":0,"parameterNumber":2,"parameterNumberName":"U-component_of_WINDS"},"data":[0,0,0,1.3292,1.3295,1.3452,1.3453,1.3638,1.3639,0,0,0,0,0,0,0,0,0,0,0,1.3237,1.3238,1.3292,1.3295,1.3452,1.3453,1.3637,1.3639,0,0,0,0,0,0,0,0,0,0,0,1.3236,1.3238,1.3239,1.3296,1.3452,1.3453,1.3637,1.3524,0,0,0,0,0,0,0,0,0,0,1.3374,1.3315,1.3237,1.3239,1.3297,1.3452,1.3453,1.3519,1.3531,1.356,0,1.3584,0,1.3615,1.3651,1.3651,0,0,0,1.3302,1.3305,1.3355,1.3239,1.3298,1.3452,1.3383,1.3526,1.354,1.3576,1.3587,1.3594,1.3618,1.3652,1.3653,1.3799,1.3799,0,0,1.3293,1.3261,1.3346,1.3364,1.334,1.3378,1.3388,1.3534,1.3544,1.3588,1.3599,1.3621,1.3653,1.3654,1.3799,1.3799,0,0,0,1.3264,1.3254,1.3301,1.3356,1.3385,1.3383,1.3394,1.3538,1.3556,1.3601,1.3623,1.3654,1.3656,1.3798,1.3799,1.3786,0,0,0,1.3259,1.3237,1.3297,1.3279,1.3382,1.3464,1.3394,1.3545,1.3563,1.3622,1.3654,1.3658,1.3798,1.3799,1.3786,1.3786,0,0,0,1.323,1.3234,1.3254,1.3277,1.3343,1.3462,1.3489,1.355,1.3576,1.3651,1.3658,1.3798,1.3799,1.3785,1.3785,1.3813,0,0,0,1.3189,1.3241,1.3253,1.332,1.3342,1.3454,1.3488,1.3574,1.3637,1.3655,1.3798,1.3799,1.3785,1.3785,1.3813,1.3831,1.3836,0,0,1.3237,1.3246,1.3288,1.3303,1.3404,1.3432,1.3532,1.362,1.3657,1.3749,1.3753,1.3786,1.3785,1.3813,1.3876,1.3879,0,0,0,1.3292,1.3321,1.3355,1.3414,1.3483,1.3541,1.3617,1.365,1.373,1.3698,1.3806,1.3806,1.3824,1.3834,1.3837,1.3854,1.3802,1.3802,1.3802,1.3313,1.3357,1.3428,1.349,1.3546,1.3624,1.3673,1.3729,1.3758,1.3782,1.381,1.3842,1.3853,1.3856,1.3872,1.3824,1.3824,1.3824,1.3824,1.3387,1.3434,1.3469,1.3551,1.3596,1.3665,1.3741,1.3758,1.3827,1.3826,1.3844,1.3837,1.3858,1.3875,1.3823,1.3823,1.3823,1.3823,1.3823,1.3404,1.3435,1.3473,1.3561,1.3623,1.3684,1.3748,1.3788,1.3825,1.3843,1.3874,1.3875,1.3879,1.3855,1.3855,1.3855,1.3855,1.3856,1.3856,1.3407,1.3451,1.3501,1.3577,1.3619,1.3678,1.3755,1.3797,1.3852,1.3876,1.3876,1.39,1.3853,1.3839,1.3858,1.3857,1.3857,1.3857,1.3857,1.3464,1.3457,1.3534,1.3576,1.3667,1.3724,1.3773,1.3854,1.3894,1.3924,1.3944,1.3903,1.3915,1.3913,1.3902,1.3936,1.3936,1.3936,1.3936,1.3478,1.3488,1.3574,1.3638,1.3704,1.3756,1.3839,1.3898,1.3958,1.3985,1.3986,1.3975,1.3971,1.3985,1.3981,1.3972,1.4023,1.4023,1.4023,1.3514,1.3532,1.3596,1.3655,1.3729,1.379,1.3869,1.3939,1.4006,1.4027,1.4006,1.4003,1.3985,1.3978,1.3998,1.3991,1.3974,0,0]},{"header":{"parameterUnit":"m.s-1","parameterCategory":1,"la1":30.2992,"la2":30.254,"lo1":-89.0895,"lo2":-89.0443,"dy":0.0025,"dx":0.0025,"nx":19,"ny":19,"refTime":"2026-03-21T03:00:00:Z","depth":0,"parameterNumber":3,"parameterNumberName":"V-component_of_WINDS"},"data":[0,0,0,4.8876,4.8875,4.8854,4.8854,4.885,4.885,0,0,0,0,0,0,0,0,0,0,0,4.8896,4.8897,4.8876,4.8875,4.8854,4.8854,4.885,4.885,0,0,0,0,0,0,0,0,0,0,0,4.8896,4.8897,4.8897,4.8875,4.8854,4.8854,4.885,4.8857,0,0,0,0,0,0,0,0,0,0,4.8874,4.8908,4.8897,4.8897,4.8875,4.8854,4.8854,4.8857,4.8857,4.8869,0,4.8885,0,4.8867,4.8851,4.8851,0,0,0,4.8864,4.8908,4.8889,4.8897,4.8875,4.8854,4.8861,4.8857,4.8856,4.8869,4.8884,4.8884,4.8867,4.8851,4.8851,4.896,4.8961,0,0,4.8866,4.89,4.889,4.889,4.8895,4.8861,4.886,4.8856,4.8875,4.8884,4.8883,4.8867,4.8851,4.8851,4.8959,4.896,0,0,0,4.8876,4.8902,4.8882,4.8891,4.8885,4.8861,4.886,4.8875,4.8866,4.8883,4.8867,4.8851,4.8852,4.8958,4.8959,4.9042,0,0,0,4.8877,4.8908,4.8883,4.8905,4.8886,4.888,4.888,4.8867,4.8865,4.8867,4.8851,4.8852,4.8956,4.8958,4.9038,4.9076,0,0,0,4.8893,4.891,4.8912,4.8906,4.8899,4.8879,4.887,4.8865,4.8856,4.8851,4.8852,4.8956,4.8958,4.9033,4.9068,4.9113,0,0,0,4.892,4.8987,4.8914,4.8982,4.8899,4.8932,4.8869,4.8892,4.8898,4.8851,4.8957,4.8959,4.9032,4.9064,4.9108,4.9155,4.9178,0,0,4.9023,4.9001,4.9038,4.8972,4.9026,4.8932,4.8998,4.8971,4.8939,4.8954,4.8956,4.9039,4.9068,4.9112,4.9299,4.9318,0,0,0,4.9082,4.9109,4.9116,4.9123,4.9104,4.909,4.9049,4.9038,4.905,4.8954,4.9067,4.9083,4.9107,4.9128,4.9144,4.9161,4.8971,4.897,4.897,4.9278,4.9233,4.9291,4.9243,4.9251,4.9207,4.9209,4.9187,4.914,4.9168,4.9171,4.9291,4.9316,4.9328,4.9347,4.9194,4.9194,4.9194,4.9195,4.9424,4.9454,4.9389,4.9422,4.9374,4.9401,4.9361,4.9327,4.9344,4.9284,4.9304,4.9241,4.935,4.9364,4.92,4.9199,4.9199,4.9198,4.9198,4.9545,4.9551,4.9538,4.9543,4.9551,4.9501,4.952,4.9476,4.9434,4.9453,4.9451,4.9449,4.9441,4.9456,4.9456,4.9456,4.9457,4.9457,4.9457,4.9676,4.9658,4.9679,4.9664,4.9662,4.9654,4.961,4.9607,4.9591,4.9557,4.9557,4.9506,4.937,4.9335,4.9464,4.9462,4.9462,4.9461,4.9461,4.9837,4.9793,4.9827,4.9826,4.9803,4.9813,4.9757,4.9753,4.9744,4.9754,4.9699,4.9606,4.9579,4.9566,4.9537,4.971,4.971,4.971,4.971,4.9938,4.9921,4.9944,4.9944,4.9938,4.989,4.9928,4.9895,4.9853,4.9844,4.9813,4.9771,4.976,4.9739,4.9723,4.9695,4.9904,4.9904,4.9904,5.0034,5.0014,5.0055,5.0014,4.9993,4.9975,5.0009,5.001,4.9953,4.9911,4.9835,4.9827,4.9759,4.974,4.9695,4.967,4.9618,0,0]}]]